GW0766 Weather Reports


Display with metric or nautical units.
time (UTC)temp
F
wind
direction
speed
MPH
gust
MPH
rain 1hr
in
rain 24hr
in
rain mn
in
humidity
%
barometer
mb
20260505221239 60 313 0.0 1.0 0.00 0.00 0.00 90 992.4
20260505215953 61 146 0.0 3.0 0.00 0.15 0.00 70 1012.2
20260505211027 60 336 0.0 0.0 0.00 0.00 0.00 90 992.9
20260505195953 60 13 0.0 0.0 0.00 0.00 0.00 90 993.1
20260505195933 61 139 0.0 1.0 0.00 0.15 0.15 77 1012.6
20260505185932 62 155 1.0 3.0 0.00 0.15 0.15 74 1012.3
20260505181645 61 19 0.0 0.0 0.00 0.00 0.00 88 992.6
20260505175919 64 187 2.0 5.0 0.00 0.15 0.15 69 1012.0
20260505165913 66 207 5.0 8.0 0.00 0.15 0.15 67 1012.1
20260505161008 64 138 2.0 5.0 0.00 0.00 0.00 83 992.4
20260505121256 68 134 2.0 8.0 0.00 0.00 0.00 71 993.2
20260505101600 68 82 3.0 8.0 0.00 0.00 0.00 71 993.6
20260505091121 69 73 2.0 5.0 0.00 0.00 0.00 66 993.7
20260505085927 60 169 0.0 4.0 0.00 0.15 0.15 82 1013.5
20260505075908 59 161 0.0 3.0 0.00 0.15 0.15 85 1013.7
20260505071238 67 89 1.0 4.0 0.00 0.00 0.00 72 993.6
20260505061150 66 130 0.0 4.0 0.00 0.00 0.00 74 993.3
20260505055930 55 140 1.0 8.0 0.03 0.12 0.12 90 1014.1
20260505041559 59 275 0.0 0.0 0.00 0.00 0.00 79 992.8
20260505035925 55 184 0.0 2.0 0.03 0.03 0.03 89 1013.9
20260505031523 59 275 0.0 0.0 0.00 0.00 0.00 79 992.9
20260505025912 56 185 0.0 0.0 0.00 0.00 0.00 87 1013.7
20260505011615 58 275 0.0 0.0 0.00 0.00 0.00 77 993.4
20260505005929 55 185 0.0 0.0 0.00 0.00 0.00 86 1014.0
20260505001618 58 268 0.0 0.0 0.00 0.00 0.00 79 993.9
20260504235919 56 186 0.0 0.0 0.00 0.00 0.00 85 1014.8
20260504225946 60 240 0.0 0.0 0.00 0.00 0.00 75 994.3